Wind_Speed
46 46 45 45 46 46 46 46 46 46 47 47 47 47 46 45 45 45 44 44 44 44 44 45 45 46 47 47 47 47 46 44 42 41 39 37 34 32
47 47 48 48 47 48 48 48 49 49 49 47 47 45 45 45 45 46 46 45 45 45 46 46 46 47 46 47 46 46 45 43 41 39 37 35 33 31
48 48 48 48 48 49 50 50 51 51 49 47 47 47 47 46 46 46 47 47 47 47 47 47 47 47 46 46 45 45 43 41 39 37 35 34 32 29
48 48 48 49 50 51 52 51 50 50 49 50 49 49 48 48 48 48 48 49 48 48 47 47 47 46 46 45 44 43 41 39 37 36 34 33 30 29
51 51 52 53 53 53 53 51 51 50 50 51 51 50 50 50 50 50 50 49 49 48 48 48 47 45 44 43 42 41 40 38 37 35 33 31 30 28
52 53 52 52 52 53 53 52 52 52 52 52 51 51 51 51 51 51 50 49 48 48 48 47 45 44 43 41 41 40 39 37 35 33 31 30 28 27
50 51 52 53 53 53 54 54 54 54 53 53 53 52 51 51 51 51 50 49 48 47 47 45 44 43 42 41 40 39 37 35 33 32 30 28 27 26
52 54 54 55 56 56 57 57 57 56 56 56 55 54 53 52 52 51 49 48 47 47 46 44 43 42 41 40 39 38 36 34 32 31 29 27 26 25
54 55 55 57 58 58 59 60 59 59 58 57 56 56 54 53 52 50 49 48 47 46 45 44 43 42 41 40 38 37 35 33 31 30 28 27 25 24
56 57 57 58 60 60 61 61 60 60 59 58 57 56 54 53 52 51 50 48 47 46 45 43 42 41 40 38 37 35 33 32 30 29 27 25 24 23
59 59 60 60 61 62 62 62 62 61 61 59 58 55 53 52 51 50 49 48 46 45 44 42 42 41 39 37 35 33 32 31 30 28 27 25 24 23
60 60 61 62 63 63 63 62 62 61 60 59 58 56 54 52 51 49 48 47 46 44 43 42 41 39 37 36 34 32 31 30 29 28 26 25 24 24
61 61 61 62 63 63 62 61 61 60 59 58 57 56 54 52 50 49 48 46 45 44 42 41 39 38 36 34 33 31 30 29 28 27 26 25 24 24
61 61 60 61 62 62 62 61 60 59 58 57 56 55 53 52 51 49 48 47 45 43 42 40 38 37 35 33 32 31 30 29 28 27 26 25 24 24
61 60 60 60 60 60 61 61 60 58 57 56 55 54 52 51 50 48 47 45 44 42 41 39 37 36 34 33 32 31 30 29 28 27 26 25 24 24
60 60 59 59 58 58 59 59 59 58 57 56 55 53 51 50 48 47 45 44 43 42 40 38 37 35 34 33 32 31 30 29 28 27 26 26 25 24
59 59 58 57 57 57 57 57 56 55 55 54 53 52 51 49 47 45 44 44 42 41 39 37 36 35 34 33 32 31 30 29 28 28 27 26 26 25
56 55 55 55 54 54 55 55 54 52 52 51 50 49 48 47 46 45 43 42 41 39 38 37 36 34 34 33 32 31 30 30 29 28 27 27 26 26
52 51 51 52 52 51 52 52 53 51 50 49 48 46 45 45 44 43 41 41 40 39 37 36 35 34 34 33 32 32 31 30 29 29 28 28 28 27
49 48 48 48 48 49 49 49 49 49 48 46 45 44 43 42 42 42 41 40 39 38 37 36 35 35 34 33 32 32 32 31 30 30 29 29 29 29
45 45 45 45 45 46 46 46 47 47 46 44 42 41 41 41 40 40 39 38 37 37 36 36 36 35 34 33 33 33 32 31 31 30 30 30 30 30
41 42 42 43 43 44 44 44 45 44 43 42 42 41 41 40 39 38 37 36 36 36 36 35 34 34 33 33 33 33 32 31 31 31 31 31 31 31
36 38 39 40 41 42 42 42 41 41 41 41 40 40 39 39 38 37 37 36 36 35 34 34 33 33 33 33 33 33 32 32 31 32 32 32 32 32
Wind_Direction
258 260 263 264 264 265 266 266 267 269 271 271 271 271 270 271 272 273 274 276 279 282 285 287 289 291 293 295 296 298 298 299 299 298 297 296 293 289
259 261 263 265 263 263 264 265 266 268 268 269 268 268 268 269 271 272 274 277 279 282 284 286 288 290 292 293 295 296 297 297 297 296 296 294 291 288
259 261 262 263 264 263 266 267 267 267 267 266 266 267 268 269 271 272 274 276 278 280 283 285 287 289 290 292 293 295 296 296 296 295 294 292 289 285
261 262 263 264 265 265 266 267 266 264 265 266 266 267 268 269 271 273 274 276 277 279 281 284 286 288 289 290 292 294 294 294 294 293 293 291 287 283
262 263 265 266 265 265 265 264 263 263 265 265 265 266 267 269 270 272 274 275 276 278 280 283 285 287 288 289 291 292 293 293 293 292 291 289 285 281
263 263 264 265 264 263 262 261 261 262 263 264 264 266 267 268 270 272 273 275 276 278 280 282 284 286 287 288 290 290 291 291 290 290 288 287 283 278
263 262 263 263 262 261 259 259 260 260 261 263 264 265 267 268 270 271 272 274 275 278 280 282 283 284 284 286 288 289 289 289 289 288 285 283 280 275
264 265 264 262 261 260 259 259 260 260 261 262 264 265 266 267 268 269 271 273 275 278 279 280 281 282 283 285 286 287 287 286 286 285 283 280 276 272
266 265 263 262 260 260 260 260 259 259 260 262 263 264 265 265 266 268 270 272 274 276 277 278 279 280 282 284 284 285 284 284 284 283 280 277 274 269
266 265 264 262 260 260 260 260 259 259 259 260 261 262 263 264 265 267 268 270 271 273 275 276 277 279 281 282 283 283 282 281 281 280 277 274 270 265
267 266 264 262 261 260 260 259 259 258 258 258 259 260 262 263 264 265 266 268 269 271 273 274 275 277 279 280 280 280 279 278 277 275 273 270 266 260
267 265 263 261 260 259 260 259 259 258 257 257 258 259 260 261 262 263 265 267 268 269 271 273 274 275 276 277 277 276 276 275 274 272 270 267 263 257
268 266 263 261 260 259 259 258 258 257 256 256 257 257 258 259 260 262 263 265 266 267 269 270 271 272 273 273 273 273 272 272 271 269 267 264 261 256
268 266 264 261 259 258 257 256 256 255 255 254 255 256 256 257 258 260 262 263 264 265 267 268 268 269 270 270 270 269 269 269 268 266 264 261 258 254
267 265 262 260 258 256 255 253 253 253 253 253 254 255 255 256 257 258 259 260 262 263 264 264 265 266 267 268 267 267 266 265 264 264 262 259 255 252
266 263 260 258 256 254 254 253 252 251 252 253 254 254 254 255 255 256 257 258 260 261 261 261 263 263 264 264 265 264 263 262 261 261 259 255 251 250
264 261 259 256 255 253 252 251 251 250 250 252 252 252 253 253 254 254 255 257 258 258 258 258 260 260 261 262 262 261 260 259 259 258 255 252 250 249
263 260 258 255 253 251 250 249 248 248 248 249 250 250 250 251 251 252 253 254 254 255 255 255 257 258 259 259 259 258 257 257 256 254 252 250 249 248
261 259 256 254 251 249 248 247 246 245 246 247 247 248 248 248 248 249 250 251 252 253 253 253 255 256 257 257 257 255 254 254 253 251 250 249 249 249
259 256 253 251 248 247 245 244 243 242 244 244 244 244 245 246 246 247 248 249 251 251 251 251 253 254 254 254 254 253 253 253 252 250 249 249 250 250
256 252 249 248 247 245 243 241 240 240 241 241 242 242 243 243 244 246 247 248 248 249 249 250 251 252 253 252 252 252 251 252 251 250 249 249 250 251
253 248 246 246 244 242 240 239 238 237 237 238 239 240 240 240 241 243 244 245 246 246 247 248 249 250 249 249 250 250 250 250 250 250 249 250 251 253
252 248 244 243 241 239 238 236 236 235 235 236 237 238 238 238 239 241 242 243 245 245 246 247 247 247 247 248 249 250 249 250 250 251 250 251 252 254
Height
5728 5730 5731 5732 5733 5733 5734 5734 5734 5734 5734 5734 5733 5732 5731 5730 5729 5729 5728 5727 5725 5723 5721 5718 5715 5712 5709 5705 5702 5698 5694 5691 5688 5685 5682 5679 5677 5675
5717 5719 5720 5721 5721 5721 5722 5722 5722 5722 5721 5722 5721 5720 5719 5718 5718 5717 5716 5715 5714 5712 5710 5707 5705 5701 5698 5695 5692 5688 5685 5681 5679 5676 5673 5670 5668 5667
5706 5708 5709 5709 5709 5710 5710 5710 5710 5709 5709 5709 5709 5708 5708 5707 5706 5706 5705 5704 5702 5701 5699 5696 5694 5691 5688 5685 5681 5678 5675 5672 5669 5667 5664 5662 5660 5658
5695 5696 5697 5697 5697 5697 5697 5697 5696 5696 5696 5696 5696 5696 5695 5695 5694 5694 5693 5692 5690 5689 5687 5685 5682 5680 5677 5674 5671 5669 5666 5663 5660 5658 5655 5654 5652 5650
5683 5683 5684 5683 5683 5684 5683 5683 5683 5683 5683 5683 5683 5682 5682 5682 5681 5681 5680 5679 5678 5676 5675 5673 5671 5669 5666 5664 5661 5659 5656 5654 5651 5649 5647 5645 5644 5643
5669 5669 5669 5669 5669 5669 5669 5669 5668 5669 5669 5669 5669 5669 5669 5668 5668 5668 5667 5667 5666 5664 5663 5661 5660 5658 5656 5654 5651 5649 5647 5645 5642 5640 5638 5637 5635 5634
5654 5654 5654 5654 5654 5653 5654 5654 5654 5654 5654 5654 5655 5655 5655 5655 5655 5655 5654 5654 5653 5652 5651 5650 5648 5647 5645 5643 5641 5639 5637 5635 5634 5632 5630 5629 5628 5627
5639 5639 5638 5638 5638 5638 5638 5638 5638 5639 5639 5640 5640 5641 5641 5641 5641 5641 5641 5641 5641 5641 5639 5638 5637 5636 5634 5633 5631 5629 5628 5626 5625 5623 5622 5620 5620 5619
5621 5621 5620 5620 5620 5620 5620 5621 5622 5623 5624 5625 5625 5626 5626 5627 5627 5628 5628 5628 5628 5628 5627 5627 5626 5625 5624 5622 5621 5620 5618 5617 5616 5615 5614 5613 5612 5612
5603 5602 5602 5602 5601 5602 5602 5603 5604 5606 5607 5608 5610 5611 5611 5612 5613 5614 5615 5615 5615 5615 5615 5615 5614 5614 5613 5612 5611 5610 5609 5608 5607 5607 5606 5605 5605 5605
5584 5583 5583 5583 5583 5583 5584 5585 5587 5589 5590 5592 5593 5595 5596 5597 5598 5600 5601 5602 5603 5603 5603 5604 5603 5603 5602 5602 5601 5600 5600 5599 5599 5598 5598 5597 5597 5598
5563 5562 5562 5562 5563 5563 5564 5566 5569 5571 5573 5575 5577 5579 5581 5582 5584 5586 5587 5588 5590 5591 5591 5592 5592 5592 5592 5592 5591 5591 5591 5590 5590 5590 5590 5590 5590 5590
5542 5542 5541 5541 5542 5543 5545 5548 5550 5552 5555 5558 5560 5563 5565 5568 5570 5572 5574 5576 5577 5578 5579 5580 5580 5581 5581 5581 5582 5582 5582 5582 5581 5582 5582 5582 5583 5583
5519 5519 5520 5520 5521 5523 5526 5529 5532 5534 5538 5541 5544 5548 5551 5553 5556 5558 5560 5562 5564 5566 5567 5568 5569 5570 5571 5571 5572 5572 5572 5573 5573 5573 5574 5574 5575 5576
5496 5497 5498 5499 5500 5503 5506 5509 5513 5517 5521 5524 5528 5532 5535 5538 5541 5544 5547 5549 5551 5553 5555 5556 5558 5559 5560 5561 5562 5563 5563 5564 5564 5565 5566 5567 5567 5569
5472 5474 5476 5478 5480 5483 5487 5490 5494 5500 5504 5508 5512 5516 5520 5524 5527 5530 5533 5536 5539 5541 5543 5545 5546 5548 5550 5551 5552 5553 5554 5555 5556 5557 5558 5559 5560 5561
5450 5452 5454 5458 5461 5464 5468 5473 5477 5482 5488 5493 5497 5501 5506 5510 5513 5517 5520 5523 5526 5529 5531 5533 5535 5537 5539 5541 5542 5543 5544 5546 5547 5548 5549 5551 5552 5554
5428 5431 5435 5438 5442 5446 5451 5456 5461 5467 5472 5477 5482 5486 5491 5495 5500 5504 5507 5511 5514 5517 5519 5522 5524 5526 5528 5530 5532 5533 5535 5536 5538 5539 5541 5542 5544 5546
5409 5413 5417 5420 5424 5429 5434 5439 5445 5451 5457 5462 5467 5472 5477 5482 5486 5490 5494 5498 5502 5505 5508 5511 5513 5516 5518 5520 5522 5524 5525 5527 5529 5531 5532 5534 5536 5538
5392 5396 5400 5403 5408 5413 5418 5424 5430 5436 5442 5448 5454 5459 5464 5469 5473 5478 5482 5486 5490 5493 5496 5499 5502 5505 5507 5510 5512 5514 5516 5518 5520 5521 5523 5525 5527 5529
5376 5380 5383 5388 5392 5397 5403 5409 5415 5422 5429 5435 5441 5446 5452 5456 5461 5466 5470 5474 5478 5482 5485 5488 5491 5494 5497 5499 5501 5503 5506 5508 5510 5512 5514 5516 5518 5520
5361 5365 5369 5373 5378 5383 5389 5396 5402 5409 5416 5423 5429 5434 5440 5445 5450 5455 5459 5463 5467 5470 5474 5477 5480 5483 5486 5489 5491 5493 5496 5498 5500 5502 5504 5507 5508 5510
5348 5352 5356 5361 5365 5371 5377 5383 5390 5398 5405 5411 5417 5423 5428 5434 5439 5444 5448 5452 5456 5460 5463 5466 5470 5472 5475 5478 5481 5483 5485 5488 5490 5492 5494 5496 5498 5500